Probability
0 0 0 0 0 0 0 0 0 0 0 0 1 3 3 3 3 2 3 3 3 3 3 4 4 4 2 2 3 5 5 4 1 0 0 0 1 1 1 0 0 0 0
0 0 0 0 0 0 0 0 0 0 0 0 1 2 3 3 3 3 3 3 3 3 3 3 4 3 3 2 3 4 3 2 1 0 0 0 0 0 0 0 0 0 0
0 0 0 1 1 0 0 0 0 0 0 0 1 1 2 3 3 3 3 3 3 3 3 3 3 3 3 3 3 3 1 1 0 0 0 0 0 0 0 0 0 0 0
0 0 1 2 2 0 0 0 0 0 0 0 0 1 2 3 3 3 3 3 3 3 3 3 3 3 3 3 3 2 1 0 0 0 0 0 0 0 0 0 0 0 0
1 1 2 3 2 1 1 1 2 1 0 0 1 1 3 3 3 3 3 3 3 3 3 3 3 3 3 3 2 2 1 1 0 0 0 0 0 0 0 0 0 0 0
2 2 2 2 2 2 2 3 3 2 1 1 1 2 3 3 3 3 3 3 3 3 3 3 3 3 2 1 1 2 3 2 0 0 0 0 0 0 0 0 0 0 0
4 3 3 4 4 4 4 3 3 3 2 1 1 2 3 3 3 3 3 3 3 3 3 3 3 3 1 0 1 3 4 2 0 0 0 0 0 0 0 0 0 0 0
4 4 4 5 5 5 5 4 3 3 3 2 1 2 3 3 3 3 3 3 3 3 3 3 3 2 1 0 1 3 3 1 0 0 0 0 0 0 0 0 0 0 0
3 3 3 3 4 5 5 5 4 3 3 3 3 3 3 3 3 3 3 3 3 3 3 3 2 1 0 0 0 1 2 1 0 0 0 0 1 1 1 0 0 0 0
3 2 3 2 2 3 4 4 3 3 3 3 3 3 3 3 3 3 3 3 3 3 3 3 1 0 0 0 0 0 0 0 0 0 0 0 1 2 1 0 0 0 0
3 3 3 3 3 2 3 3 3 3 2 3 3 3 3 3 3 3 3 3 3 3 3 2 1 1 0 0 0 0 0 0 0 0 0 0 1 1 1 0 0 0 0
3 3 3 4 3 2 3 4 3 2 1 1 3 3 3 3 3 2 2 2 2 2 2 3 3 2 1 0 0 0 0 0 0 0 0 0 0 0 0 0 0 0 0
4 4 4 4 3 3 3 4 4 2 1 1 2 3 3 3 2 1 1 1 1 1 2 2 2 2 1 0 0 0 0 0 0 0 0 0 0 0 0 0 0 0 0
6 6 7 6 5 5 5 5 4 3 2 1 2 3 3 3 2 2 2 2 1 1 1 1 1 1 0 0 0 0 0 0 0 0 0 0 0 0 0 0 0 0 0
8 8 8 9 9 8 8 7 5 4 2 2 3 3 2 2 3 3 3 2 1 0 0 0 0 0 0 0 0 0 0 0 0 0 0 0 0 0 0 1 1 1 1
12 11 11 12 13 13 10 7 5 4 3 4 5 5 4 3 4 4 3 2 1 0 1 1 0 0 0 0 0 0 0 0 0 0 0 0 1 1 1 2 3 3 4
18 17 15 15 17 16 10 6 4 4 4 5 7 8 7 7 7 5 3 2 1 1 1 2 1 0 0 0 0 0 0 0 0 0 0 0 0 1 2 4 5 6 7
27 24 19 17 19 18 13 6 3 3 4 5 8 9 8 8 8 6 3 2 2 1 1 2 1 0 0 0 0 0 0 0 0 0 0 0 1 2 4 7 8 8 9
35 30 23 18 19 19 17 10 5 4 5 6 8 9 8 8 8 7 5 3 3 2 1 1 2 1 1 1 0 0 0 1 1 1 0 1 2 2 4 8 10 10 8
38 34 27 21 20 20 20 16 11 9 9 9 11 10 10 10 10 9 7 5 4 4 4 4 4 3 3 2 1 1 1 1 2 1 1 1 2 2 4 9 12 11 9
39 35 30 26 23 23 23 21 18 17 15 14 14 12 11 11 11 10 8 7 6 7 8 8 6 4 3 3 2 2 2 2 3 2 1 1 2 3 6 11 14 14 14
39 36 33 31 27 26 26 24 22 22 20 19 18 15 11 10 10 9 9 9 8 9 9 8 7 5 4 3 3 1 1 2 4 2 2 3 4 5 7 10 14 18 20
38 37 36 35 30 27 26 24 23 23 23 22 21 19 14 10 9 8 8 9 9 9 8 6 5 5 4 3 3 2 1 1 2 1 2 3 5 5 7 8 11 17 19
38 38 40 40 34 28 25 24 23 23 24 23 21 20 17 13 11 10 9 9 11 11 10 7 5 6 5 4 3 3 2 1 1 0 1 2 3 5 6 7 9 13 16
35 38 43 45 40 32 27 26 24 23 23 22 21 21 20 17 14 13 12 13 15 14 12 10 9 9 9 6 4 4 4 3 1 1 1 1 2 3 4 7 10 13 16
31 35 42 46 43 36 31 28 26 23 22 20 21 22 22 19 16 14 14 15 17 15 13 13 12 13 12 7 5 6 6 4 3 2 1 1 1 2 4 8 12 15 17
Wind_Speed
11 12 12 12 11 11 11 11 11 11 11 11 11 11 12 12 12 12 13 13 13 13 14 14 14 14 14 15 15 15 15 15 15 15 15 15 14 13 13 13 13 12 15
15 14 13 12 11 11 11 11 11 11 11 11 11 11 11 12 12 12 12 12 12 13 13 14 14 14 14 13 13 13 13 13 14 15 15 14 14 12 11 10 12 11 14
15 14 13 12 12 11 11 11 10 10 10 10 10 10 10 11 11 12 12 12 12 13 13 13 13 13 13 12 11 11 11 11 12 13 13 9 10 12 12 13 15 14 13
15 14 13 12 12 11 11 10 10 10 10 10 9 9 9 10 11 11 12 12 12 12 13 12 12 12 12 11 10 9 9 9 9 9 6 7 8 11 12 13 14 13 13
16 15 13 13 12 11 11 10 10 10 10 9 9 10 11 11 11 11 12 12 12 12 12 12 12 11 10 9 8 7 6 6 7 5 5 7 7 11 12 12 13 12 12
15 15 13 12 12 11 10 10 10 10 10 10 10 11 11 11 12 12 11 11 11 11 11 11 11 10 9 8 7 5 3 3 3 4 6 8 7 10 12 12 12 11 11
14 14 14 12 11 11 10 10 10 10 10 10 10 11 11 11 11 12 11 11 11 11 11 11 10 10 9 7 5 3 1 0 2 4 7 8 8 11 12 11 11 11 10
13 15 13 12 12 11 10 9 9 9 9 9 9 10 11 11 11 11 11 10 10 10 10 10 10 9 8 6 4 1 1 3 2 6 7 8 10 12 12 11 11 10 10
11 12 12 11 10 11 10 9 9 9 9 9 9 9 10 10 10 10 10 9 9 9 9 9 8 8 7 6 3 1 2 3 1 3 8 7 11 13 12 11 10 10 10
8 9 9 10 10 10 9 9 9 9 8 8 8 9 9 10 10 10 9 8 9 9 9 8 7 7 6 5 4 2 3 3 2 3 6 8 13 13 12 11 10 10 9
7 6 7 8 7 8 9 9 8 8 7 7 6 7 7 5 7 7 9 9 9 8 8 8 7 6 5 5 5 4 4 2 2 4 6 11 13 13 12 11 10 9 9
7 6 5 6 5 5 6 7 5 5 6 4 4 5 4 2 3 7 8 8 8 8 7 7 7 6 5 4 5 6 3 3 2 5 7 14 13 13 12 11 10 9 9
7 6 6 5 4 4 3 4 2 2 3 3 3 3 3 3 4 5 4 5 5 6 5 6 6 4 4 3 3 3 3 2 1 4 8 14 13 13 12 11 10 10 9
7 6 6 6 5 4 3 2 2 2 2 3 2 1 2 1 2 3 2 3 3 3 3 3 2 3 2 2 3 2 1 0 2 4 7 14 13 13 12 12 11 10 9
6 6 6 6 4 3 2 1 2 2 2 3 2 1 1 2 2 2 1 1 2 2 2 2 1 1 1 2 2 3 2 1 2 4 6 12 13 12 12 13 12 11 11
6 5 5 5 5 3 1 0 1 1 2 3 2 2 1 2 2 2 1 0 0 1 1 1 1 1 1 1 1 2 2 2 2 5 7 9 12 12 12 13 13 12 12
6 5 5 5 5 4 2 2 1 1 2 2 3 3 1 2 2 1 1 1 1 1 2 1 1 1 2 2 2 2 2 2 2 3 5 6 7 10 12 12 13 12 12
6 5 3 4 6 4 2 1 0 0 1 2 2 2 2 2 2 1 1 2 2 2 2 2 1 1 1 1 1 2 2 2 3 3 4 5 6 7 10 12 12 12 13
6 5 3 3 5 4 3 2 1 1 1 1 1 2 2 2 2 2 1 1 2 1 1 1 1 1 1 1 2 2 2 2 3 4 4 4 4 5 6 10 13 12 13
7 5 4 3 3 3 2 1 1 1 1 1 1 1 2 2 2 2 2 2 1 0 0 0 1 1 1 2 2 1 1 1 2 2 3 3 4 5 5 6 7 8 12
7 6 5 4 3 2 1 2 2 2 1 2 2 3 3 2 2 2 1 1 1 1 1 1 1 1 2 1 1 1 1 2 2 2 2 1 3 3 4 5 4 4 5
7 6 5 4 4 3 2 1 1 1 2 2 1 2 2 2 2 3 2 1 2 1 2 1 1 1 2 1 1 1 1 1 1 3 2 2 2 2 2 4 3 3 3
8 7 5 4 4 3 2 2 1 1 1 1 2 2 2 2 2 1 2 2 1 1 2 2 2 3 2 2 1 1 1 1 1 1 1 1 2 2 2 2 2 3 3
8 8 6 5 4 3 2 2 2 2 1 0 1 1 1 2 2 2 2 3 2 1 1 3 3 2 2 2 2 2 2 1 1 1 1 0 1 1 1 1 2 2 2
8 8 7 6 4 3 2 1 1 1 1 0 0 1 1 1 1 2 2 2 2 2 2 2 0 2 1 2 2 2 2 2 2 2 2 1 0 0 0 1 1 1 2
8 8 8 6 4 4 3 2 1 0 0 1 0 0 1 1 1 1 1 1 1 2 2 2 1 2 2 2 2 1 1 1 1 1 2 2 1 1 1 1 1 1 2
Wind_Direction
94 92 87 83 82 79 79 78 77 81 84 84 83 85 86 90 94 96 98 98 98 98 100 100 98 98 98 99 100 102 102 102 102 103 105 107 108 111 116 122 118 105 110
101 98 90 86 84 83 82 82 81 82 83 84 83 85 88 91 96 98 100 100 100 102 102 103 101 100 99 100 102 104 106 109 109 110 110 109 109 109 109 114 107 111 115
107 107 98 89 87 85 82 81 81 83 85 84 85 88 92 96 101 104 106 106 105 105 104 104 104 103 102 102 105 109 112 117 120 122 121 112 108 106 104 104 106 115 116
108 105 98 95 89 86 85 83 82 83 84 85 87 93 98 102 104 105 106 112 111 108 107 107 106 106 106 108 110 114 121 126 133 140 126 114 113 113 112 112 113 118 119
101 101 102 100 96 91 89 87 84 84 85 84 84 92 100 102 103 103 104 112 113 110 111 111 109 109 110 112 114 120 128 140 152 150 110 102 103 121 119 120 120 122 122
108 107 107 105 100 95 92 92 90 86 84 82 84 93 98 102 104 104 104 109 113 115 115 115 114 112 112 111 114 121 137 161 175 134 117 112 113 127 127 126 125 125 124
107 109 113 110 105 100 96 93 91 88 86 85 86 93 99 102 103 104 105 108 112 114 116 117 118 117 114 113 117 119 121 222 222 120 113 110 122 132 130 129 127 127 128
109 110 115 115 111 106 101 98 97 94 92 91 91 95 100 103 105 107 108 111 114 116 118 119 120 121 120 118 120 116 314 292 146 117 116 115 129 133 134 133 133 134 133
102 116 128 130 125 119 113 107 103 101 101 99 101 105 109 111 112 113 113 114 117 121 125 126 127 129 132 133 138 185 290 312 303 129 123 124 136 138 139 141 141 142 140
96 110 127 132 138 137 127 126 121 118 115 114 115 119 121 123 124 125 122 121 125 127 132 134 138 140 147 156 169 218 283 297 243 130 117 131 139 142 144 146 147 147 148
97 105 118 123 136 133 130 134 139 136 135 135 136 138 144 148 136 138 120 131 137 140 143 149 155 161 170 182 195 224 263 242 165 108 109 136 144 145 148 150 153 155 155
109 103 98 106 118 122 121 134 150 143 144 166 138 155 172 150 122 118 129 141 145 149 155 167 172 181 195 188 197 214 238 230 151 123 131 146 148 150 154 159 164 165 164
111 100 99 90 89 88 104 128 131 124 133 135 117 142 140 138 132 130 146 149 160 167 179 170 187 206 197 181 183 199 223 232 132 124 144 151 154 158 163 169 174 173 172
108 109 107 96 75 59 61 86 134 128 131 120 127 158 135 126 120 133 149 160 173 174 173 179 200 189 175 180 177 201 225 220 121 120 151 158 161 167 173 177 180 182 182
118 115 106 104 97 81 57 323 112 118 125 118 126 126 122 129 121 122 112 146 172 158 170 181 193 159 176 196 186 194 193 168 140 133 146 165 169 175 180 183 186 189 190
120 117 118 125 127 128 143 319 73 116 126 133 142 138 145 102 103 111 125 226 182 147 149 168 175 161 195 203 189 197 187 172 164 152 152 169 176 181 186 189 192 195 196
132 128 132 146 137 144 172 209 156 186 152 133 131 138 149 126 136 150 166 210 210 193 164 191 196 183 193 195 192 208 186 180 172 164 164 167 175 186 191 194 197 200 200
135 133 152 148 135 146 165 199 225 172 111 124 138 143 157 152 163 182 198 197 214 201 175 180 222 180 197 210 206 214 178 176 186 188 183 178 174 179 191 196 197 201 203
126 132 138 115 129 144 156 170 202 150 128 157 151 148 166 178 180 190 228 207 223 198 182 206 159 202 218 224 226 211 199 191 185 204 194 185 182 172 173 192 200 203 205
130 134 138 138 130 148 157 167 232 206 176 173 156 158 163 186 191 207 212 210 246 197 188 57 127 246 255 246 255 216 217 198 183 208 207 190 181 180 176 176 190 207 210
136 137 141 150 143 159 162 181 185 186 204 183 178 169 171 194 192 191 264 193 229 211 213 206 199 250 257 248 290 272 248 219 196 207 218 196 179 178 164 164 176 183 196
141 144 148 153 153 167 162 184 203 190 212 183 151 146 186 198 204 203 198 239 223 211 234 239 216 251 265 240 224 264 280 270 238 218 193 201 176 156 155 166 178 171 178
150 153 153 152 153 168 163 179 186 180 257 129 141 164 195 210 220 225 180 233 236 210 203 213 230 238 252 263 230 219 225 240 303 305 210 169 148 152 158 159 169 154 173
154 153 143 148 152 158 176 188 200 162 170 189 167 158 180 209 226 215 213 224 235 247 217 214 208 237 243 261 255 243 236 203 192 275 305 77 147 157 170 186 168 140 148
156 153 146 144 153 161 180 172 220 170 158 173 141 132 161 194 232 239 216 217 217 237 244 252 231 222 243 253 257 255 252 236 214 195 231 263 267 124 198 203 149 142 147
155 150 147 148 157 163 177 178 191 210 21 356 338 214 190 184 202 256 214 217 223 242 233 232 234 226 240 262 270 274 265 253 246 216 217 225 234 259 233 195 165 125 132